This is the latest recevied weather packets stored in our database for station/object KD7JB. If no packets are shown the sender has not sent any weather packets the latest 10 day(s).
| Time | Temp. | Humidity | Pressure | Rain* | Wind** | Luminosity | Snow |
|---|---|---|---|---|---|---|---|
| 1777564094 | 13.33° C | 51% | 1183.6 hPa | 0 mm | - | 371 W/m² | - |
| 1777563789 | 12.78° C | 49% | 1183.8 hPa | 0 mm | - | 356 W/m² | - |
| 1777563486 | 13.33° C | 51% | 1183.8 hPa | 0 mm | - | 343 W/m² | - |
| 1777563185 | 12.78° C | 50% | 1183.7 hPa | 0 mm | - | 329 W/m² | - |
| 1777562882 | 12.78° C | 52% | 1183.7 hPa | 0 mm | - | 315 W/m² | - |
| 1777562579 | 12.78° C | 53% | 1183.6 hPa | 0 mm | - | 301 W/m² | - |
| 1777562277 | 13.33° C | 52% | 1183.6 hPa | 0 mm | - | 285 W/m² | - |
| 1777561974 | 12.78° C | 54% | 1183.7 hPa | 0 mm | - | 271 W/m² | - |
| 1777561671 | 12.78° C | 54% | 1183.6 hPa | 0 mm | - | 257 W/m² | - |
| 1777561366 | 12.78° C | 52% | 1183.6 hPa | 0 mm | - | 241 W/m² | - |
| 1777561062 | 12.78° C | 52% | 1183.6 hPa | 0 mm | - | 213 W/m² | - |
| 1777560758 | 12.22° C | 54% | 1183.6 hPa | 0 mm | - | 211 W/m² | - |
| 1777560455 | 11.67° C | 55% | 1183.8 hPa | 0 mm | - | 197 W/m² | - |
| 1777560153 | 11.11° C | 55% | 1183.7 hPa | 0 mm | - | 181 W/m² | - |
| 1777559849 | 11.11° C | 56% | 1183.8 hPa | 0 mm | - | 166 W/m² | - |
| 1777559545 | 11.11° C | 56% | 1183.8 hPa | 0 mm | - | 152 W/m² | - |
| 1777559243 | 10.56° C | 56% | 1183.5 hPa | 0 mm | - | 138 W/m² | - |
| 1777558937 | 10.56° C | 58% | 1183.6 hPa | 0 mm | - | 125 W/m² | - |
| 1777558634 | 10.56° C | 59% | 1183.5 hPa | 0 mm | - | 112 W/m² | - |
| 1777558329 | 10.56° C | 59% | 1183.4 hPa | 0 mm | - | 101 W/m² | - |
| 1777558027 | 10.56° C | 59% | 1183.4 hPa | 0 mm | - | 89 W/m² | - |
| 1777557723 | 10° C | 59% | 1183.6 hPa | 0 mm | - | 78 W/m² | - |
| 1777557419 | 10° C | 58% | 1183.3 hPa | 0 mm | - | 44 W/m² | - |
| 1777557115 | 10° C | 58% | 1183.3 hPa | 0 mm | - | 31 W/m² | - |
| 1777556811 | 10° C | 58% | 1183.3 hPa | 0 mm | - | 30 W/m² | - |
* Rain latest hour (hover to see other rain measurements)
** Current wind speed in m/s (hover to see current wind gust speed)